TimeAKDT,TemperatureF,Dew PointF,Humidity,Sea Level PressureIn,VisibilityMPH,Wind Direction,Wind SpeedMPH,Gust SpeedMPH,PrecipitationIn,Events,Conditions,WindDirDegrees,DateUTC
12:16 AM,19.4,12.2,74,29.40,4.0,Calm,Calm,-,N/A,,Overcast,0,2013-09-23 08:16:00
12:36 AM,19.4,12.2,74,29.40,6.0,Calm,Calm,-,N/A,,Overcast,0,2013-09-23 08:36:00
12:56 AM,19.4,12.2,74,29.40,5.0,Calm,Calm,-,N/A,,Overcast,0,2013-09-23 08:56:00
1:16 AM,19.4,12.2,74,29.41,10.0,Calm,Calm,-,N/A,,Overcast,0,2013-09-23 09:16:00
1:36 AM,19.4,12.2,74,29.41,8.0,Calm,Calm,-,N/A,,Overcast,0,2013-09-23 09:36:00
1:56 AM,19.4,12.2,74,29.42,9.0,SW,3.5,-,N/A,,Mostly Cloudy,220,2013-09-23 09:56:00
2:16 AM,17.6,8.6,68,29.43,10.0,South,3.5,-,N/A,,Partly Cloudy,170,2013-09-23 10:16:00
2:36 AM,17.6,10.4,73,29.43,10.0,South,4.6,-,N/A,,Mostly Cloudy,180,2013-09-23 10:36:00
2:56 AM,14.0,6.8,73,29.44,10.0,Calm,Calm,-,N/A,,Partly Cloudy,0,2013-09-23 10:56:00
3:16 AM,14.0,6.8,73,29.44,10.0,South,4.6,-,N/A,,Clear,180,2013-09-23 11:16:00
3:36 AM,15.8,8.6,73,29.45,10.0,SSW,4.6,-,N/A,,Partly Cloudy,210,2013-09-23 11:36:00
3:56 AM,17.6,10.4,73,29.45,10.0,South,8.1,-,N/A,,Partly Cloudy,180,2013-09-23 11:56:00
4:16 AM,19.4,12.2,74,29.46,10.0,South,9.2,-,N/A,,Scattered Clouds,180,2013-09-23 12:16:00
4:36 AM,19.4,12.2,74,29.47,10.0,South,8.1,-,N/A,,Mostly Cloudy,190,2013-09-23 12:36:00
4:56 AM,19.4,12.2,74,29.47,10.0,South,9.2,-,N/A,,Mostly Cloudy,190,2013-09-23 12:56:00
5:16 AM,19.4,12.2,74,29.48,10.0,South,8.1,-,N/A,,Mostly Cloudy,190,2013-09-23 13:16:00
5:36 AM,19.4,12.2,74,29.48,10.0,South,8.1,-,N/A,,Overcast,180,2013-09-23 13:36:00
5:56 AM,19.4,12.2,74,29.48,10.0,South,8.1,-,N/A,,Overcast,190,2013-09-23 13:56:00
6:16 AM,19.4,12.2,74,29.49,10.0,South,9.2,-,N/A,,Overcast,180,2013-09-23 14:16:00
6:36 AM,19.4,12.2,74,29.49,10.0,South,8.1,-,N/A,,Overcast,190,2013-09-23 14:36:00
6:56 AM,19.4,12.2,74,29.50,10.0,South,8.1,-,N/A,,Overcast,190,2013-09-23 14:56:00
7:16 AM,19.4,12.2,74,29.50,10.0,SSW,5.8,-,N/A,,Scattered Clouds,210,2013-09-23 15:16:00
7:36 AM,17.6,10.4,73,29.51,10.0,SW,5.8,-,N/A,,Clear,220,2013-09-23 15:36:00
7:56 AM,17.6,12.2,79,29.51,10.0,SSW,6.9,-,N/A,,Clear,200,2013-09-23 15:56:00
8:16 AM,17.6,10.4,73,29.51,10.0,SW,5.8,-,N/A,,Clear,220,2013-09-23 16:16:00
8:36 AM,17.6,10.4,73,29.52,10.0,SW,6.9,-,N/A,,Clear,220,2013-09-23 16:36:00
8:56 AM,17.6,10.4,73,29.52,10.0,South,8.1,-,N/A,,Clear,190,2013-09-23 16:56:00
9:16 AM,19.4,12.2,74,29.52,10.0,South,9.2,-,N/A,,Clear,180,2013-09-23 17:16:00
9:36 AM,19.4,12.2,74,29.53,10.0,South,10.4,-,N/A,,Clear,190,2013-09-23 17:36:00
9:56 AM,19.4,12.2,74,29.53,10.0,South,8.1,-,N/A,,Clear,190,2013-09-23 17:56:00
10:16 AM,19.4,12.2,74,29.54,10.0,South,9.2,-,N/A,,Clear,190,2013-09-23 18:16:00
10:36 AM,21.2,12.2,68,29.54,10.0,South,11.5,-,N/A,,Clear,180,2013-09-23 18:36:00
10:56 AM,21.2,12.2,68,29.55,10.0,South,11.5,-,N/A,,Clear,170,2013-09-23 18:56:00
11:16 AM,21.2,10.4,63,29.55,10.0,South,10.4,-,N/A,,Clear,170,2013-09-23 19:16:00
11:36 AM,21.2,10.4,63,29.56,10.0,South,9.2,-,N/A,,Clear,180,2013-09-23 19:36:00
11:56 AM,24.8,10.4,54,29.56,10.0,South,11.5,-,N/A,,Clear,180,2013-09-23 19:56:00
12:16 PM,24.8,10.4,54,29.57,10.0,South,10.4,-,N/A,,Clear,170,2013-09-23 20:16:00
12:36 PM,24.8,10.4,54,29.57,5.0,South,11.5,-,N/A,,Clear,180,2013-09-23 20:36:00
12:56 PM,24.8,10.4,54,29.57,10.0,South,10.4,-,N/A,,Clear,170,2013-09-23 20:56:00
1:16 PM,26.6,10.4,51,29.58,10.0,South,13.8,17.3,N/A,,Clear,190,2013-09-23 21:16:00
1:36 PM,26.6,10.4,51,29.58,10.0,SSW,12.7,-,N/A,,Scattered Clouds,200,2013-09-23 21:36:00
1:56 PM,26.6,10.4,51,29.59,10.0,SW,10.4,20.7,N/A,,Mostly Cloudy,230,2013-09-23 21:56:00
2:16 PM,26.6,10.4,51,29.59,10.0,SSW,9.2,18.4,N/A,,Mostly Cloudy,210,2013-09-23 22:16:00
2:36 PM,26.6,10.4,51,29.60,10.0,SW,10.4,17.3,N/A,,Mostly Cloudy,230,2013-09-23 22:36:00
2:56 PM,26.6,10.4,51,29.60,10.0,WSW,9.2,-,N/A,,Mostly Cloudy,240,2013-09-23 22:56:00
3:16 PM,26.6,10.4,51,29.60,10.0,SSW,10.4,-,N/A,,Scattered Clouds,210,2013-09-23 23:16:00
3:36 PM,26.6,10.4,51,29.61,10.0,SSW,10.4,-,N/A,,Partly Cloudy,200,2013-09-23 23:36:00
3:56 PM,26.6,10.4,51,29.61,10.0,SSW,8.1,-,N/A,,Partly Cloudy,200,2013-09-23 23:56:00
4:16 PM,26.6,10.4,51,29.62,10.0,SSW,8.1,-,N/A,,Scattered Clouds,210,2013-09-24 00:16:00
4:36 PM,26.6,10.4,51,29.63,10.0,SSW,9.2,-,N/A,,Scattered Clouds,200,2013-09-24 00:36:00
4:56 PM,26.6,10.4,51,29.63,10.0,SSW,6.9,-,N/A,,Mostly Cloudy,200,2013-09-24 00:56:00
5:16 PM,26.6,10.4,51,29.63,10.0,SW,8.1,-,N/A,,Overcast,220,2013-09-24 01:16:00
5:36 PM,26.6,8.6,47,29.64,10.0,SSW,6.9,-,N/A,,Mostly Cloudy,210,2013-09-24 01:36:00
5:56 PM,26.6,10.4,51,29.64,10.0,SSW,6.9,-,N/A,,Mostly Cloudy,200,2013-09-24 01:56:00
6:16 PM,26.6,10.4,51,29.64,10.0,SW,4.6,-,N/A,,Overcast,220,2013-09-24 02:16:00
6:36 PM,26.6,8.6,47,29.65,10.0,SW,5.8,-,N/A,,Overcast,220,2013-09-24 02:36:00
6:56 PM,26.6,10.4,51,29.65,10.0,SSW,4.6,-,N/A,,Overcast,210,2013-09-24 02:56:00
7:16 PM,24.8,8.6,50,29.65,10.0,Calm,Calm,-,N/A,,Overcast,0,2013-09-24 03:16:00
7:36 PM,24.8,10.4,54,29.66,10.0,WSW,3.5,-,N/A,,Overcast,250,2013-09-24 03:36:00
7:56 PM,23.0,8.6,54,29.66,10.0,West,4.6,-,N/A,,Overcast,260,2013-09-24 03:56:00
8:16 PM,23.0,8.6,54,29.66,10.0,West,4.6,-,N/A,,Overcast,270,2013-09-24 04:16:00
8:36 PM,23.0,10.4,59,29.67,10.0,West,3.5,-,N/A,,Overcast,270,2013-09-24 04:36:00
8:56 PM,23.0,10.4,59,29.67,10.0,West,4.6,-,N/A,,Overcast,270,2013-09-24 04:56:00
9:16 PM,23.0,10.4,59,29.67,10.0,Calm,Calm,-,N/A,,Overcast,0,2013-09-24 05:16:00
9:36 PM,23.0,10.4,59,29.68,10.0,Calm,Calm,-,N/A,,Overcast,0,2013-09-24 05:36:00
9:56 PM,23.0,10.4,59,29.68,10.0,Calm,Calm,-,N/A,,Overcast,0,2013-09-24 05:56:00
10:16 PM,23.0,10.4,59,29.68,10.0,Calm,Calm,-,N/A,,Overcast,0,2013-09-24 06:16:00
10:36 PM,21.2,10.4,63,29.69,10.0,NNE,3.5,-,N/A,,Overcast,20,2013-09-24 06:36:00
10:56 PM,21.2,10.4,63,29.69,10.0,Calm,Calm,-,N/A,,Overcast,0,2013-09-24 06:56:00
11:16 PM,21.2,10.4,63,29.69,10.0,Calm,Calm,-,N/A,,Overcast,0,2013-09-24 07:16:00
11:36 PM,23.0,10.4,59,29.69,10.0,Calm,Calm,-,N/A,,Overcast,0,2013-09-24 07:36:00
11:56 PM,23.0,10.4,59,29.70,10.0,Calm,Calm,-,N/A,,Overcast,0,2013-09-24 07:56:00